owner,sensor,date,latitude,longitude,vertical_datum,sea_water_temperature,qcFlag 
ADCP,ioos:station:wmo:42395:1,2017-12-01T00:40:00Z,26.4040,-90.7920,0.0,27.46,2 
ADCP,ioos:station:wmo:42395:1,2017-12-01T02:20:00Z,26.4040,-90.7920,0.0,27.46,2 
ADCP,ioos:station:wmo:42395:1,2017-12-01T03:20:00Z,26.4040,-90.7920,0.0,27.46,2 
ADCP,ioos:station:wmo:42395:1,2017-12-01T04:20:00Z,26.4040,-90.7920,0.0,27.42,2 
ADCP,ioos:station:wmo:42395:1,2017-12-01T05:20:00Z,26.4040,-90.7920,0.0,27.38,2 
ADCP,ioos:station:wmo:42395:1,2017-12-01T06:40:00Z,26.4040,-90.7920,0.0,27.38,2 
ADCP,ioos:station:wmo:42395:1,2017-12-01T07:40:00Z,26.4040,-90.7920,0.0,27.38,2 
ADCP,ioos:station:wmo:42395:1,2017-12-01T09:20:00Z,26.4040,-90.7920,0.0,27.38,2 
ADCP,ioos:station:wmo:42395:1,2017-12-01T10:20:00Z,26.4040,-90.7920,0.0,27.38,2 
ADCP,ioos:station:wmo:42395:1,2017-12-01T11:20:00Z,26.4040,-90.7920,0.0,27.34,2 
ADCP,ioos:station:wmo:42395:1,2017-12-01T12:40:00Z,26.4040,-90.7920,0.0,27.34,2 
ADCP,ioos:station:wmo:42395:1,2017-12-01T13:40:00Z,26.4040,-90.7920,0.0,27.34,2 
ADCP,ioos:station:wmo:42395:1,2017-12-01T15:00:00Z,26.4040,-90.7920,0.0,27.23,2 
ADCP,ioos:station:wmo:42395:1,2017-12-01T16:20:00Z,26.4040,-90.7920,0.0,27.27,2 
ADCP,ioos:station:wmo:42395:1,2017-12-01T17:20:00Z,26.4040,-90.7920,0.0,27.27,2 
ADCP,ioos:station:wmo:42395:1,2017-12-01T18:20:00Z,26.4040,-90.7920,0.0,27.27,2 
ADCP,ioos:station:wmo:42395:1,2017-12-01T19:40:00Z,26.4040,-90.7920,0.0,27.27,2 
ADCP,ioos:station:wmo:42395:1,2017-12-01T20:40:00Z,26.4040,-90.7920,0.0,27.38,2 
ADCP,ioos:station:wmo:42395:1,2017-12-01T22:00:00Z,26.4040,-90.7920,0.0,27.42,2 
ADCP,ioos:station:wmo:42395:1,2017-12-01T23:20:00Z,26.4040,-90.7920,0.0,27.34,2 
ADCP,ioos:station:wmo:42395:1,2017-12-02T00:20:00Z,26.4040,-90.7920,0.0,27.38,2 
ADCP,ioos:station:wmo:42395:1,2017-12-02T01:20:00Z,26.4040,-90.7920,0.0,27.34,2 
ADCP,ioos:station:wmo:42395:1,2017-12-02T02:40:00Z,26.4040,-90.7920,0.0,27.23,2 
ADCP,ioos:station:wmo:42395:1,2017-12-02T03:40:00Z,26.4040,-90.7920,0.0,27.07,2 
ADCP,ioos:station:wmo:42395:1,2017-12-02T05:00:00Z,26.4040,-90.7920,0.0,27.07,2 
ADCP,ioos:station:wmo:42395:1,2017-12-02T06:20:00Z,26.4040,-90.7920,0.0,27.07,2 
ADCP,ioos:station:wmo:42395:1,2017-12-02T07:20:00Z,26.4040,-90.7920,0.0,27.15,2 
ADCP,ioos:station:wmo:42395:1,2017-12-02T08:20:00Z,26.4040,-90.7920,0.0,27.03,2 
ADCP,ioos:station:wmo:42395:1,2017-12-02T09:40:00Z,26.4040,-90.7920,0.0,26.99,2 
ADCP,ioos:station:wmo:42395:1,2017-12-02T10:40:00Z,26.4040,-90.7920,0.0,26.95,2 
ADCP,ioos:station:wmo:42395:1,2017-12-02T12:00:00Z,26.4040,-90.7920,0.0,26.72,2 
ADCP,ioos:station:wmo:42395:1,2017-12-02T13:20:00Z,26.4040,-90.7920,0.0,26.52,2 
ADCP,ioos:station:wmo:42395:1,2017-12-02T14:20:00Z,26.4040,-90.7920,0.0,26.41,2 
ADCP,ioos:station:wmo:42395:1,2017-12-02T15:20:00Z,26.4040,-90.7920,0.0,26.37,2 
ADCP,ioos:station:wmo:42395:1,2017-12-02T16:40:00Z,26.4040,-90.7920,0.0,26.48,2 
ADCP,ioos:station:wmo:42395:1,2017-12-02T17:40:00Z,26.4040,-90.7920,0.0,26.8,2 
ADCP,ioos:station:wmo:42395:1,2017-12-02T19:20:00Z,26.4040,-90.7920,0.0,27.23,2 
ADCP,ioos:station:wmo:42395:1,2017-12-02T20:20:00Z,26.4040,-90.7920,0.0,27.42,2 
ADCP,ioos:station:wmo:42395:1,2017-12-02T21:20:00Z,26.4040,-90.7920,0.0,27.03,2 
ADCP,ioos:station:wmo:42395:1,2017-12-02T22:20:00Z,26.4040,-90.7920,0.0,27.07,2 
ADCP,ioos:station:wmo:42395:1,2017-12-02T23:40:00Z,26.4040,-90.7920,0.0,26.6,2 
ADCP,ioos:station:wmo:42395:1,2017-12-03T00:40:00Z,26.4040,-90.7920,0.0,26.17,2 
ADCP,ioos:station:wmo:42395:1,2017-12-03T02:20:00Z,26.4040,-90.7920,0.0,25.94,2 
ADCP,ioos:station:wmo:42395:1,2017-12-03T03:20:00Z,26.4040,-90.7920,0.0,26.02,2 
ADCP,ioos:station:wmo:42395:1,2017-12-03T04:20:00Z,26.4040,-90.7920,0.0,25.98,2 
ADCP,ioos:station:wmo:42395:1,2017-12-03T05:20:00Z,26.4040,-90.7920,0.0,25.98,2 
ADCP,ioos:station:wmo:42395:1,2017-12-03T06:40:00Z,26.4040,-90.7920,0.0,25.9,2 
ADCP,ioos:station:wmo:42395:1,2017-12-03T08:00:00Z,26.4040,-90.7920,0.0,25.94,2 
ADCP,ioos:station:wmo:42395:1,2017-12-03T09:20:00Z,26.4040,-90.7920,0.0,26.72,2 
ADCP,ioos:station:wmo:42395:1,2017-12-03T10:20:00Z,26.4040,-90.7920,0.0,26.8,2 
ADCP,ioos:station:wmo:42395:1,2017-12-03T11:20:00Z,26.4040,-90.7920,0.0,26.84,2 
ADCP,ioos:station:wmo:42395:1,2017-12-03T12:20:00Z,26.4040,-90.7920,0.0,26.88,2 
ADCP,ioos:station:wmo:42395:1,2017-12-03T13:40:00Z,26.4040,-90.7920,0.0,26.91,2 
ADCP,ioos:station:wmo:42395:1,2017-12-03T15:00:00Z,26.4040,-90.7920,0.0,26.95,2 
ADCP,ioos:station:wmo:42395:1,2017-12-03T16:20:00Z,26.4040,-90.7920,0.0,26.99,2 
ADCP,ioos:station:wmo:42395:1,2017-12-03T17:20:00Z,26.4040,-90.7920,0.0,26.99,2 
ADCP,ioos:station:wmo:42395:1,2017-12-03T18:20:00Z,26.4040,-90.7920,0.0,27.03,2 
ADCP,ioos:station:wmo:42395:1,2017-12-03T19:40:00Z,26.4040,-90.7920,0.0,27.19,2 
ADCP,ioos:station:wmo:42395:1,2017-12-03T20:40:00Z,26.4040,-90.7920,0.0,27.15,2 
ADCP,ioos:station:wmo:42395:1,2017-12-03T22:00:00Z,26.4040,-90.7920,0.0,27.15,2 
ADCP,ioos:station:wmo:42395:1,2017-12-03T23:20:00Z,26.4040,-90.7920,0.0,27.0,11111222 
ADCP,ioos:station:wmo:42395:1,2017-12-04T00:20:00Z,26.4040,-90.7920,0.0,26.95,2 
ADCP,ioos:station:wmo:42395:1,2017-12-04T01:20:00Z,26.4040,-90.7920,0.0,26.91,2 
ADCP,ioos:station:wmo:42395:1,2017-12-04T02:40:00Z,26.4040,-90.7920,0.0,26.88,2 
ADCP,ioos:station:wmo:42395:1,2017-12-04T03:40:00Z,26.4040,-90.7920,0.0,26.8,2 
ADCP,ioos:station:wmo:42395:1,2017-12-04T05:00:00Z,26.4040,-90.7920,0.0,26.64,2 
ADCP,ioos:station:wmo:42395:1,2017-12-04T06:20:00Z,26.4040,-90.7920,0.0,26.41,2 
ADCP,ioos:station:wmo:42395:1,2017-12-04T07:20:00Z,26.4040,-90.7920,0.0,26.21,2 
ADCP,ioos:station:wmo:42395:1,2017-12-04T08:20:00Z,26.4040,-90.7920,0.0,26.17,2 
ADCP,ioos:station:wmo:42395:1,2017-12-04T09:40:00Z,26.4040,-90.7920,0.0,26.09,2 
ADCP,ioos:station:wmo:42395:1,2017-12-04T10:40:00Z,26.4040,-90.7920,0.0,25.9,2 
ADCP,ioos:station:wmo:42395:1,2017-12-04T12:20:00Z,26.4040,-90.7920,0.0,25.94,2 
ADCP,ioos:station:wmo:42395:1,2017-12-04T13:20:00Z,26.4040,-90.7920,0.0,26.02,2 
ADCP,ioos:station:wmo:42395:1,2017-12-04T14:20:00Z,26.4040,-90.7920,0.0,26.02,2 
ADCP,ioos:station:wmo:42395:1,2017-12-04T15:20:00Z,26.4040,-90.7920,0.0,25.98,2 
ADCP,ioos:station:wmo:42395:1,2017-12-04T16:40:00Z,26.4040,-90.7920,0.0,25.9,2 
ADCP,ioos:station:wmo:42395:1,2017-12-04T18:00:00Z,26.4040,-90.7920,0.0,25.74,2 
ADCP,ioos:station:wmo:42395:1,2017-12-04T19:20:00Z,26.4040,-90.7920,0.0,25.59,2 
ADCP,ioos:station:wmo:42395:1,2017-12-04T20:20:00Z,26.4040,-90.7920,0.0,25.62,2 
ADCP,ioos:station:wmo:42395:1,2017-12-04T21:20:00Z,26.4040,-90.7920,0.0,25.66,2 
ADCP,ioos:station:wmo:42395:1,2017-12-04T22:20:00Z,26.4040,-90.7920,0.0,25.78,2 
ADCP,ioos:station:wmo:42395:1,2017-12-04T23:40:00Z,26.4040,-90.7920,0.0,25.82,2 
ADCP,ioos:station:wmo:42395:1,2017-12-05T00:40:00Z,26.4040,-90.7920,0.0,25.86,2 
ADCP,ioos:station:wmo:42395:1,2017-12-05T02:20:00Z,26.4040,-90.7920,0.0,25.82,2 
ADCP,ioos:station:wmo:42395:1,2017-12-05T03:20:00Z,26.4040,-90.7920,0.0,25.7,2 
ADCP,ioos:station:wmo:42395:1,2017-12-05T04:20:00Z,26.4040,-90.7920,0.0,25.66,2 
ADCP,ioos:station:wmo:42395:1,2017-12-05T05:20:00Z,26.4040,-90.7920,0.0,25.7,2 
ADCP,ioos:station:wmo:42395:1,2017-12-05T06:40:00Z,26.4040,-90.7920,0.0,25.74,2 
ADCP,ioos:station:wmo:42395:1,2017-12-05T07:40:00Z,26.4040,-90.7920,0.0,25.82,2 
ADCP,ioos:station:wmo:42395:1,2017-12-05T09:20:00Z,26.4040,-90.7920,0.0,25.94,2 
ADCP,ioos:station:wmo:42395:1,2017-12-05T10:20:00Z,26.4040,-90.7920,0.0,25.98,2 
ADCP,ioos:station:wmo:42395:1,2017-12-05T11:20:00Z,26.4040,-90.7920,0.0,26.05,2 
ADCP,ioos:station:wmo:42395:1,2017-12-05T12:20:00Z,26.4040,-90.7920,0.0,26.05,2 
ADCP,ioos:station:wmo:42395:1,2017-12-05T13:40:00Z,26.4040,-90.7920,0.0,26.05,2 
ADCP,ioos:station:wmo:42395:1,2017-12-05T14:40:00Z,26.4040,-90.7920,0.0,26.05,2 
ADCP,ioos:station:wmo:42395:1,2017-12-05T16:20:00Z,26.4040,-90.7920,0.0,26.37,2 
ADCP,ioos:station:wmo:42395:1,2017-12-05T17:20:00Z,26.4040,-90.7920,0.0,26.48,2 
ADCP,ioos:station:wmo:42395:1,2017-12-05T18:20:00Z,26.4040,-90.7920,0.0,26.52,2 
ADCP,ioos:station:wmo:42395:1,2017-12-05T19:40:00Z,26.4040,-90.7920,0.0,26.6,2 
ADCP,ioos:station:wmo:42395:1,2017-12-05T20:40:00Z,26.4040,-90.7920,0.0,26.64,2 
ADCP,ioos:station:wmo:42395:1,2017-12-05T22:00:00Z,26.4040,-90.7920,0.0,26.68,2 
ADCP,ioos:station:wmo:42395:1,2017-12-05T23:20:00Z,26.4040,-90.7920,0.0,26.72,2 
ADCP,ioos:station:wmo:42395:1,2017-12-06T00:20:00Z,26.4040,-90.7920,0.0,26.76,2 
ADCP,ioos:station:wmo:42395:1,2017-12-06T01:20:00Z,26.4040,-90.7920,0.0,26.76,2 
ADCP,ioos:station:wmo:42395:1,2017-12-06T02:40:00Z,26.4040,-90.7920,0.0,26.76,2 
ADCP,ioos:station:wmo:42395:1,2017-12-06T03:40:00Z,26.4040,-90.7920,0.0,26.8,2 
ADCP,ioos:station:wmo:42395:1,2017-12-06T05:00:00Z,26.4040,-90.7920,0.0,26.76,2 
ADCP,ioos:station:wmo:42395:1,2017-12-06T06:20:00Z,26.4040,-90.7920,0.0,26.6,2 
ADCP,ioos:station:wmo:42395:1,2017-12-06T07:20:00Z,26.4040,-90.7920,0.0,26.41,2 
ADCP,ioos:station:wmo:42395:1,2017-12-06T08:20:00Z,26.4040,-90.7920,0.0,26.29,2 
ADCP,ioos:station:wmo:42395:1,2017-12-06T09:40:00Z,26.4040,-90.7920,0.0,26.13,2 
ADCP,ioos:station:wmo:42395:1,2017-12-06T10:40:00Z,26.4040,-90.7920,0.0,26.05,2 
ADCP,ioos:station:wmo:42395:1,2017-12-06T12:00:00Z,26.4040,-90.7920,0.0,26.02,2 
ADCP,ioos:station:wmo:42395:1,2017-12-06T13:20:00Z,26.4040,-90.7920,0.0,26.02,2 
ADCP,ioos:station:wmo:42395:1,2017-12-06T14:20:00Z,26.4040,-90.7920,0.0,26.05,2 
ADCP,ioos:station:wmo:42395:1,2017-12-06T15:20:00Z,26.4040,-90.7920,0.0,26.09,2 
ADCP,ioos:station:wmo:42395:1,2017-12-06T16:40:00Z,26.4040,-90.7920,0.0,26.17,2 
ADCP,ioos:station:wmo:42395:1,2017-12-06T17:40:00Z,26.4040,-90.7920,0.0,26.29,2 
ADCP,ioos:station:wmo:42395:1,2017-12-06T19:20:00Z,26.4040,-90.7920,0.0,26.33,2 
ADCP,ioos:station:wmo:42395:1,2017-12-06T20:20:00Z,26.4040,-90.7920,0.0,26.29,2 
ADCP,ioos:station:wmo:42395:1,2017-12-06T21:20:00Z,26.4040,-90.7920,0.0,26.21,2 
ADCP,ioos:station:wmo:42395:1,2017-12-06T22:20:00Z,26.4040,-90.7920,0.0,26.17,2 
ADCP,ioos:station:wmo:42395:1,2017-12-06T23:40:00Z,26.4040,-90.7920,0.0,26.05,2 
ADCP,ioos:station:wmo:42395:1,2017-12-07T01:00:00Z,26.4040,-90.7920,0.0,25.94,2 
ADCP,ioos:station:wmo:42395:1,2017-12-07T02:20:00Z,26.4040,-90.7920,0.0,25.78,2 
ADCP,ioos:station:wmo:42395:1,2017-12-07T03:20:00Z,26.4040,-90.7920,0.0,25.82,2 
ADCP,ioos:station:wmo:42395:1,2017-12-07T04:20:00Z,26.4040,-90.7920,0.0,25.82,2 
ADCP,ioos:station:wmo:42395:1,2017-12-07T05:20:00Z,26.4040,-90.7920,0.0,25.78,2 
ADCP,ioos:station:wmo:42395:1,2017-12-07T06:40:00Z,26.4040,-90.7920,0.0,25.74,2 
ADCP,ioos:station:wmo:42395:1,2017-12-07T07:40:00Z,26.4040,-90.7920,0.0,25.74,2 
ADCP,ioos:station:wmo:42395:1,2017-12-07T09:20:00Z,26.4040,-90.7920,0.0,25.78,2 
ADCP,ioos:station:wmo:42395:1,2017-12-07T10:20:00Z,26.4040,-90.7920,0.0,25.78,2 
ADCP,ioos:station:wmo:42395:1,2017-12-07T11:20:00Z,26.4040,-90.7920,0.0,25.74,2 
ADCP,ioos:station:wmo:42395:1,2017-12-07T12:20:00Z,26.4040,-90.7920,0.0,25.66,2 
ADCP,ioos:station:wmo:42395:1,2017-12-07T13:40:00Z,26.4040,-90.7920,0.0,25.62,2 
ADCP,ioos:station:wmo:42395:1,2017-12-07T14:40:00Z,26.4040,-90.7920,0.0,25.66,2 
ADCP,ioos:station:wmo:42395:1,2017-12-07T16:20:00Z,26.4040,-90.7920,0.0,25.62,2 
ADCP,ioos:station:wmo:42395:1,2017-12-07T17:20:00Z,26.4040,-90.7920,0.0,25.62,2 
ADCP,ioos:station:wmo:42395:1,2017-12-07T18:20:00Z,26.4040,-90.7920,0.0,25.62,2 
ADCP,ioos:station:wmo:42395:1,2017-12-07T19:40:00Z,26.4040,-90.7920,0.0,25.6,11111222 
ADCP,ioos:station:wmo:42395:1,2017-12-07T20:40:00Z,26.4040,-90.7920,0.0,25.6,11111222 
ADCP,ioos:station:wmo:42395:1,2017-12-07T21:40:00Z,26.4040,-90.7920,0.0,25.7,11111222 
ADCP,ioos:station:wmo:42395:1,2017-12-07T23:20:00Z,26.4040,-90.7920,0.0,25.7,2 
ADCP,ioos:station:wmo:42395:1,2017-12-08T00:20:00Z,26.4040,-90.7920,0.0,25.7,2 
ADCP,ioos:station:wmo:42395:1,2017-12-08T01:20:00Z,26.4040,-90.7920,0.0,25.66,2 
ADCP,ioos:station:wmo:42395:1,2017-12-08T02:40:00Z,26.4040,-90.7920,0.0,25.66,2 
ADCP,ioos:station:wmo:42395:1,2017-12-08T03:40:00Z,26.4040,-90.7920,0.0,25.62,2 
ADCP,ioos:station:wmo:42395:1,2017-12-08T05:00:00Z,26.4040,-90.7920,0.0,25.55,2 
ADCP,ioos:station:wmo:42395:1,2017-12-08T06:20:00Z,26.4040,-90.7920,0.0,25.47,2 
ADCP,ioos:station:wmo:42395:1,2017-12-08T07:20:00Z,26.4040,-90.7920,0.0,25.43,2 
ADCP,ioos:station:wmo:42395:1,2017-12-08T08:20:00Z,26.4040,-90.7920,0.0,25.35,2 
ADCP,ioos:station:wmo:42395:1,2017-12-08T09:40:00Z,26.4040,-90.7920,0.0,25.35,2 
ADCP,ioos:station:wmo:42395:1,2017-12-08T10:40:00Z,26.4040,-90.7920,0.0,25.31,2 
ADCP,ioos:station:wmo:42395:1,2017-12-08T12:00:00Z,26.4040,-90.7920,0.0,25.27,2 
ADCP,ioos:station:wmo:42395:1,2017-12-08T13:20:00Z,26.4040,-90.7920,0.0,25.08,2 
ADCP,ioos:station:wmo:42395:1,2017-12-08T14:20:00Z,26.4040,-90.7920,0.0,25.0,2 
ADCP,ioos:station:wmo:42395:1,2017-12-08T15:20:00Z,26.4040,-90.7920,0.0,25.0,2 
ADCP,ioos:station:wmo:42395:1,2017-12-08T16:40:00Z,26.4040,-90.7920,0.0,24.96,2 
ADCP,ioos:station:wmo:42395:1,2017-12-08T17:40:00Z,26.4040,-90.7920,0.0,24.92,2 
ADCP,ioos:station:wmo:42395:1,2017-12-08T19:20:00Z,26.4040,-90.7920,0.0,24.88,2 
ADCP,ioos:station:wmo:42395:1,2017-12-08T20:20:00Z,26.4040,-90.7920,0.0,24.88,2 
ADCP,ioos:station:wmo:42395:1,2017-12-08T21:20:00Z,26.4040,-90.7920,0.0,24.88,2 
ADCP,ioos:station:wmo:42395:1,2017-12-08T22:20:00Z,26.4040,-90.7920,0.0,24.84,2 
ADCP,ioos:station:wmo:42395:1,2017-12-08T23:40:00Z,26.4040,-90.7920,0.0,24.84,2 
ADCP,ioos:station:wmo:42395:1,2017-12-09T00:40:00Z,26.4040,-90.7920,0.0,24.77,2 
ADCP,ioos:station:wmo:42395:1,2017-12-09T02:20:00Z,26.4040,-90.7920,0.0,24.69,2 
ADCP,ioos:station:wmo:42395:1,2017-12-09T03:20:00Z,26.4040,-90.7920,0.0,24.61,2 
ADCP,ioos:station:wmo:42395:1,2017-12-09T04:20:00Z,26.4040,-90.7920,0.0,24.53,2 
ADCP,ioos:station:wmo:42395:1,2017-12-09T05:20:00Z,26.4040,-90.7920,0.0,24.61,2 
ADCP,ioos:station:wmo:42395:1,2017-12-09T07:00:00Z,26.4040,-90.7920,0.0,24.84,2 
ADCP,ioos:station:wmo:42395:1,2017-12-09T07:40:00Z,26.4040,-90.7920,0.0,24.88,2 
ADCP,ioos:station:wmo:42395:1,2017-12-09T09:20:00Z,26.4040,-90.7920,0.0,24.88,2 
ADCP,ioos:station:wmo:42395:1,2017-12-09T10:20:00Z,26.4040,-90.7920,0.0,24.88,2 
ADCP,ioos:station:wmo:42395:1,2017-12-09T11:20:00Z,26.4040,-90.7920,0.0,24.84,2 
ADCP,ioos:station:wmo:42395:1,2017-12-09T12:40:00Z,26.4040,-90.7920,0.0,24.8,2 
ADCP,ioos:station:wmo:42395:1,2017-12-09T13:40:00Z,26.4040,-90.7920,0.0,24.8,2 
ADCP,ioos:station:wmo:42395:1,2017-12-09T14:40:00Z,26.4040,-90.7920,0.0,24.8,2 
ADCP,ioos:station:wmo:42395:1,2017-12-09T16:20:00Z,26.4040,-90.7920,0.0,24.77,2 
ADCP,ioos:station:wmo:42395:1,2017-12-09T17:20:00Z,26.4040,-90.7920,0.0,24.73,2 
ADCP,ioos:station:wmo:42395:1,2017-12-09T18:20:00Z,26.4040,-90.7920,0.0,24.77,2 
ADCP,ioos:station:wmo:42395:1,2017-12-09T19:40:00Z,26.4040,-90.7920,0.0,24.73,2 
ADCP,ioos:station:wmo:42395:1,2017-12-09T20:40:00Z,26.4040,-90.7920,0.0,24.73,2 
ADCP,ioos:station:wmo:42395:1,2017-12-09T21:40:00Z,26.4040,-90.7920,0.0,24.77,2 
ADCP,ioos:station:wmo:42395:1,2017-12-09T23:20:00Z,26.4040,-90.7920,0.0,24.65,2 
ADCP,ioos:station:wmo:42395:1,2017-12-10T00:20:00Z,26.4040,-90.7920,0.0,24.57,2 
ADCP,ioos:station:wmo:42395:1,2017-12-10T01:20:00Z,26.4040,-90.7920,0.0,24.45,2 
ADCP,ioos:station:wmo:42395:1,2017-12-10T02:40:00Z,26.4040,-90.7920,0.0,24.45,2 
ADCP,ioos:station:wmo:42395:1,2017-12-10T03:40:00Z,26.4040,-90.7920,0.0,24.45,2 
ADCP,ioos:station:wmo:42395:1,2017-12-10T05:00:00Z,26.4040,-90.7920,0.0,24.38,2 
ADCP,ioos:station:wmo:42395:1,2017-12-10T06:20:00Z,26.4040,-90.7920,0.0,24.41,2 
ADCP,ioos:station:wmo:42395:1,2017-12-10T07:20:00Z,26.4040,-90.7920,0.0,24.57,2 
ADCP,ioos:station:wmo:42395:1,2017-12-10T08:20:00Z,26.4040,-90.7920,0.0,24.65,2 
ADCP,ioos:station:wmo:42395:1,2017-12-10T09:40:00Z,26.4040,-90.7920,0.0,24.73,2 
ADCP,ioos:station:wmo:42395:1,2017-12-10T10:40:00Z,26.4040,-90.7920,0.0,24.73,2 
ADCP,ioos:station:wmo:42395:1,2017-12-10T12:20:00Z,26.4040,-90.7920,0.0,24.69,2 
ADCP,ioos:station:wmo:42395:1,2017-12-10T13:20:00Z,26.4040,-90.7920,0.0,24.69,2 
ADCP,ioos:station:wmo:42395:1,2017-12-10T14:20:00Z,26.4040,-90.7920,0.0,24.69,2 
ADCP,ioos:station:wmo:42395:1,2017-12-10T15:20:00Z,26.4040,-90.7920,0.0,24.69,2 
ADCP,ioos:station:wmo:42395:1,2017-12-10T16:40:00Z,26.4040,-90.7920,0.0,24.69,2 
ADCP,ioos:station:wmo:42395:1,2017-12-10T17:40:00Z,26.4040,-90.7920,0.0,24.73,2 
ADCP,ioos:station:wmo:42395:1,2017-12-10T19:20:00Z,26.4040,-90.7920,0.0,24.73,2 
ADCP,ioos:station:wmo:42395:1,2017-12-10T20:20:00Z,26.4040,-90.7920,0.0,24.69,2 
ADCP,ioos:station:wmo:42395:1,2017-12-10T21:20:00Z,26.4040,-90.7920,0.0,24.53,2 
ADCP,ioos:station:wmo:42395:1,2017-12-10T22:20:00Z,26.4040,-90.7920,0.0,24.53,2 
ADCP,ioos:station:wmo:42395:1,2017-12-10T23:40:00Z,26.4040,-90.7920,0.0,24.53,2 
ADCP,ioos:station:wmo:42395:1,2017-12-11T00:40:00Z,26.4040,-90.7920,0.0,24.49,2 
ADCP,ioos:station:wmo:42395:1,2017-12-11T02:20:00Z,26.4040,-90.7920,0.0,24.45,2 
ADCP,ioos:station:wmo:42395:1,2017-12-11T03:20:00Z,26.4040,-90.7920,0.0,24.45,2 
ADCP,ioos:station:wmo:42395:1,2017-12-11T04:20:00Z,26.4040,-90.7920,0.0,24.41,2 
ADCP,ioos:station:wmo:42395:1,2017-12-11T05:20:00Z,26.4040,-90.7920,0.0,24.3,2 
ADCP,ioos:station:wmo:42395:1,2017-12-11T06:40:00Z,26.4040,-90.7920,0.0,24.26,2 
ADCP,ioos:station:wmo:42395:1,2017-12-11T08:00:00Z,26.4040,-90.7920,0.0,24.26,2 
ADCP,ioos:station:wmo:42395:1,2017-12-11T09:20:00Z,26.4040,-90.7920,0.0,24.26,2 
ADCP,ioos:station:wmo:42395:1,2017-12-11T10:20:00Z,26.4040,-90.7920,0.0,24.26,2 
ADCP,ioos:station:wmo:42395:1,2017-12-11T11:20:00Z,26.4040,-90.7920,0.0,24.26,2 
ADCP,ioos:station:wmo:42395:1,2017-12-11T12:40:00Z,26.4040,-90.7920,0.0,24.26,2 
ADCP,ioos:station:wmo:42395:1,2017-12-11T13:40:00Z,26.4040,-90.7920,0.0,24.3,2 
ADCP,ioos:station:wmo:42395:1,2017-12-11T15:00:00Z,26.4040,-90.7920,0.0,24.34,2 
ADCP,ioos:station:wmo:42395:1,2017-12-11T16:20:00Z,26.4040,-90.7920,0.0,24.38,2 
ADCP,ioos:station:wmo:42395:1,2017-12-11T17:20:00Z,26.4040,-90.7920,0.0,24.41,2 
ADCP,ioos:station:wmo:42395:1,2017-12-11T18:20:00Z,26.4040,-90.7920,0.0,24.45,2 
ADCP,ioos:station:wmo:42395:1,2017-12-11T19:40:00Z,26.4040,-90.7920,0.0,24.49,2 
ADCP,ioos:station:wmo:42395:1,2017-12-11T20:40:00Z,26.4040,-90.7920,0.0,24.53,2 
ADCP,ioos:station:wmo:42395:1,2017-12-11T22:00:00Z,26.4040,-90.7920,0.0,24.57,2 
ADCP,ioos:station:wmo:42395:1,2017-12-11T23:20:00Z,26.4040,-90.7920,0.0,24.57,2 
ADCP,ioos:station:wmo:42395:1,2017-12-12T00:20:00Z,26.4040,-90.7920,0.0,24.61,2 
ADCP,ioos:station:wmo:42395:1,2017-12-12T01:20:00Z,26.4040,-90.7920,0.0,24.61,2 
ADCP,ioos:station:wmo:42395:1,2017-12-12T02:40:00Z,26.4040,-90.7920,0.0,24.61,2 
ADCP,ioos:station:wmo:42395:1,2017-12-12T03:40:00Z,26.4040,-90.7920,0.0,24.61,2 
ADCP,ioos:station:wmo:42395:1,2017-12-12T05:20:00Z,26.4040,-90.7920,0.0,24.61,2 
ADCP,ioos:station:wmo:42395:1,2017-12-12T06:20:00Z,26.4040,-90.7920,0.0,24.61,2 
ADCP,ioos:station:wmo:42395:1,2017-12-12T07:20:00Z,26.4040,-90.7920,0.0,24.61,2 
ADCP,ioos:station:wmo:42395:1,2017-12-12T08:20:00Z,26.4040,-90.7920,0.0,24.61,2 
ADCP,ioos:station:wmo:42395:1,2017-12-12T09:40:00Z,26.4040,-90.7920,0.0,24.65,2 
ADCP,ioos:station:wmo:42395:1,2017-12-12T10:40:00Z,26.4040,-90.7920,0.0,24.65,2 
ADCP,ioos:station:wmo:42395:1,2017-12-12T12:20:00Z,26.4040,-90.7920,0.0,24.65,2 
ADCP,ioos:station:wmo:42395:1,2017-12-12T13:20:00Z,26.4040,-90.7920,0.0,24.69,2 
ADCP,ioos:station:wmo:42395:1,2017-12-12T14:20:00Z,26.4040,-90.7920,0.0,24.69,2 
ADCP,ioos:station:wmo:42395:1,2017-12-12T15:20:00Z,26.4040,-90.7920,0.0,24.69,2 
ADCP,ioos:station:wmo:42395:1,2017-12-12T16:40:00Z,26.4040,-90.7920,0.0,24.73,2 
ADCP,ioos:station:wmo:42395:1,2017-12-12T17:40:00Z,26.4040,-90.7920,0.0,24.73,2 
ADCP,ioos:station:wmo:42395:1,2017-12-12T19:20:00Z,26.4040,-90.7920,0.0,24.73,2 
ADCP,ioos:station:wmo:42395:1,2017-12-12T20:20:00Z,26.4040,-90.7920,0.0,24.73,2 
ADCP,ioos:station:wmo:42395:1,2017-12-12T21:20:00Z,26.4040,-90.7920,0.0,24.7,11111222 
ADCP,ioos:station:wmo:42395:1,2017-12-12T22:20:00Z,26.4040,-90.7920,0.0,24.7,11111222 
ADCP,ioos:station:wmo:42395:1,2017-12-12T23:40:00Z,26.4040,-90.7920,0.0,24.7,11111222 
ADCP,ioos:station:wmo:42395:1,2017-12-13T01:00:00Z,26.4040,-90.7920,0.0,24.7,11111222 
ADCP,ioos:station:wmo:42395:1,2017-12-13T02:20:00Z,26.4040,-90.7920,0.0,24.7,11111222 
ADCP,ioos:station:wmo:42395:1,2017-12-13T03:20:00Z,26.4040,-90.7920,0.0,24.7,11111222 
ADCP,ioos:station:wmo:42395:1,2017-12-13T04:20:00Z,26.4040,-90.7920,0.0,24.7,11111222 
ADCP,ioos:station:wmo:42395:1,2017-12-13T05:40:00Z,26.4040,-90.7920,0.0,24.7,11111222 
ADCP,ioos:station:wmo:42395:1,2017-12-13T06:40:00Z,26.4040,-90.7920,0.0,24.7,11111222 
ADCP,ioos:station:wmo:42395:1,2017-12-13T08:00:00Z,26.4040,-90.7920,0.0,24.69,2 
ADCP,ioos:station:wmo:42395:1,2017-12-13T09:20:00Z,26.4040,-90.7920,0.0,24.69,2 
ADCP,ioos:station:wmo:42395:1,2017-12-13T10:20:00Z,26.4040,-90.7920,0.0,24.69,2 
ADCP,ioos:station:wmo:42395:1,2017-12-13T11:20:00Z,26.4040,-90.7920,0.0,24.65,2 
ADCP,ioos:station:wmo:42395:1,2017-12-13T13:00:00Z,26.4040,-90.7920,0.0,24.65,2 
ADCP,ioos:station:wmo:42395:1,2017-12-13T13:40:00Z,26.4040,-90.7920,0.0,24.6,11111222 
ADCP,ioos:station:wmo:42395:1,2017-12-13T15:20:00Z,26.4040,-90.7920,0.0,24.65,2 
ADCP,ioos:station:wmo:42395:1,2017-12-13T16:20:00Z,26.4040,-90.7920,0.0,24.65,2 
ADCP,ioos:station:wmo:42395:1,2017-12-13T17:20:00Z,26.4040,-90.7920,0.0,24.73,2 
ADCP,ioos:station:wmo:42395:1,2017-12-13T18:20:00Z,26.4040,-90.7920,0.0,24.73,2 
ADCP,ioos:station:wmo:42395:1,2017-12-13T19:40:00Z,26.4040,-90.7920,0.0,24.73,2 
ADCP,ioos:station:wmo:42395:1,2017-12-13T20:40:00Z,26.4040,-90.7920,0.0,24.73,2 
ADCP,ioos:station:wmo:42395:1,2017-12-13T22:20:00Z,26.4040,-90.7920,0.0,24.8,11111222 
ADCP,ioos:station:wmo:42395:1,2017-12-13T23:20:00Z,26.4040,-90.7920,0.0,24.8,11111222 
ADCP,ioos:station:wmo:42395:1,2017-12-14T00:20:00Z,26.4040,-90.7920,0.0,24.8,11111222 
ADCP,ioos:station:wmo:42395:1,2017-12-14T01:20:00Z,26.4040,-90.7920,0.0,24.8,11111222 
ADCP,ioos:station:wmo:42395:1,2017-12-14T03:20:00Z,26.4040,-90.7920,0.0,24.8,11111222 
ADCP,ioos:station:wmo:42395:1,2017-12-14T04:20:00Z,26.4040,-90.7920,0.0,24.7,11111222 
ADCP,ioos:station:wmo:42395:1,2017-12-14T05:20:00Z,26.4040,-90.7920,0.0,24.4,11111222 
ADCP,ioos:station:wmo:42395:1,2017-12-14T06:40:00Z,26.4040,-90.7920,0.0,24.2,11111222 
ADCP,ioos:station:wmo:42395:1,2017-12-14T08:00:00Z,26.4040,-90.7920,0.0,24.2,11111222 
ADCP,ioos:station:wmo:42395:1,2017-12-14T09:20:00Z,26.4040,-90.7920,0.0,24.22,2 
ADCP,ioos:station:wmo:42395:1,2017-12-14T10:20:00Z,26.4040,-90.7920,0.0,24.1,2 
ADCP,ioos:station:wmo:42395:1,2017-12-14T11:20:00Z,26.4040,-90.7920,0.0,24.14,2 
ADCP,ioos:station:wmo:42395:1,2017-12-14T12:40:00Z,26.4040,-90.7920,0.0,24.1,2 
ADCP,ioos:station:wmo:42395:1,2017-12-14T13:40:00Z,26.4040,-90.7920,0.0,24.14,2 
ADCP,ioos:station:wmo:42395:1,2017-12-14T15:00:00Z,26.4040,-90.7920,0.0,24.18,2 
ADCP,ioos:station:wmo:42395:1,2017-12-14T16:20:00Z,26.4040,-90.7920,0.0,24.22,2 
ADCP,ioos:station:wmo:42395:1,2017-12-14T17:20:00Z,26.4040,-90.7920,0.0,24.3,2 
ADCP,ioos:station:wmo:42395:1,2017-12-14T18:20:00Z,26.4040,-90.7920,0.0,24.38,2 
ADCP,ioos:station:wmo:42395:1,2017-12-14T19:40:00Z,26.4040,-90.7920,0.0,24.4,11111222 
ADCP,ioos:station:wmo:42395:1,2017-12-14T20:40:00Z,26.4040,-90.7920,0.0,24.4,11111222 
ADCP,ioos:station:wmo:42395:1,2017-12-14T22:00:00Z,26.4040,-90.7920,0.0,24.3,2 
ADCP,ioos:station:wmo:42395:1,2017-12-14T23:20:00Z,26.4040,-90.7920,0.0,24.26,2 
ADCP,ioos:station:wmo:42395:1,2017-12-15T00:20:00Z,26.4040,-90.7920,0.0,24.18,2 
ADCP,ioos:station:wmo:42395:1,2017-12-15T01:20:00Z,26.4040,-90.7920,0.0,24.06,2 
ADCP,ioos:station:wmo:42395:1,2017-12-15T02:40:00Z,26.4040,-90.7920,0.0,24.1,2 
ADCP,ioos:station:wmo:42395:1,2017-12-15T03:40:00Z,26.4040,-90.7920,0.0,24.22,2 
ADCP,ioos:station:wmo:42395:1,2017-12-15T05:20:00Z,26.4040,-90.7920,0.0,24.22,2 
ADCP,ioos:station:wmo:42395:1,2017-12-15T06:20:00Z,26.4040,-90.7920,0.0,24.1,2 
ADCP,ioos:station:wmo:42395:1,2017-12-15T07:20:00Z,26.4040,-90.7920,0.0,24.06,2 